KV6O Weather Reports


Display with metric or nautical units.
time (UTC)temp
F
wind
direction
speed
MPH
gust
MPH
rain 1hr
in
rain 24hr
in
rain mn
in
humidity
%
barometer
mb
20220122173215 0 0 0.0 0.0 0.00 0.00 0.00 100
20220122172414 27 0 0.0 0.0 0.00 0.00 0.01 95
20220122171612 26 216 0.0 5.0 0.00 0.00 0.01 95
20220122170815 26 128 0.0 5.0 0.00 0.00 0.00 94
20220122170014 26 233 4.0 5.0 0.00 0.00 0.00 94
20220122165613 0 0 0.0 0.0 0.00 0.00 0.00 100
20220122164814 25 140 0.0 6.0 0.00 0.00 0.00 96
20220122164015 25 0 0.0 0.0 0.00 0.00 0.00 95
20220122163214 0 0 0.0 0.0 0.00 0.00 0.00 100
20220122162411 23 0 4.0 0.0 0.00 0.00 0.00 95
20220122161614 22 0 0.0 0.0 0.00 0.00 0.00 95
20220122160813 21 0 0.0 0.0 0.00 0.00 0.00 96
20220122160015 20 14 0.0 0.0 0.00 0.00 0.00 96
20220122155615 0 0 0.0 0.0 0.00 0.00 0.00 100
20220122154814 0 0 0.0 0.0 0.00 0.00 0.00 100
20220122154014 18 0 0.0 0.0 0.00 0.00 0.00 97
20220122153214 17 21 0.0 7.0 0.00 0.00 0.00 97
20220122152412 17 16 2.0 6.0 0.00 0.00 0.00 97
20220122151615 16 10 4.0 7.0 0.00 0.00 0.00 96
20220122150814 0 0 0.0 0.0 0.00 0.00 0.00 100
20220122150014 0 0 0.0 0.0 0.00 0.00 0.00 100
20220122145613 17 13 3.0 5.0 0.00 0.00 0.00 97
20220122144812 17 28 2.0 5.0 0.00 0.00 0.00 97
20220122144011 17 28 3.0 5.0 0.00 0.00 0.00 97
20220122143216 0 0 0.0 0.0 0.00 0.00 0.00 100
20220122142412 18 13 0.0 6.0 0.00 0.00 0.00 98
20220122141614 19 323 1.0 10.0 0.00 0.00 0.00 98
20220122140815 19 347 4.0 6.0 0.00 0.00 0.00 98
20220122140014 19 1 3.0 6.0 0.00 0.00 0.00 98
20220122135614 19 0 0.0 0.0 0.00 0.00 0.00 98
20220122134814 19 0 0.0 0.0 0.00 0.00 0.00 98
20220122134013 19 23 0.0 4.0 0.00 0.00 0.00 98
20220122133212 19 169 0.0 5.0 0.00 0.00 0.00 98
20220122132414 19 179 2.0 1.0 0.00 0.00 0.00 98
20220122131614 19 251 0.0 5.0 0.00 0.00 0.00 98
20220122130814 19 168 2.0 4.0 0.00 0.00 0.00 99
20220122130015 0 0 0.0 0.0 0.00 0.00 0.00 100
20220122125615 0 0 0.0 0.0 0.00 0.00 0.00 100
20220122124814 0 0 0.0 0.0 0.00 0.00 0.00 100
20220122124014 19 189 2.0 5.0 0.00 0.00 0.00 99
20220122123216 0 0 0.0 0.0 0.00 0.00 0.00 100
20220122122415 19 144 3.0 2.0 0.00 0.00 0.00 98
20220122121614 0 0 0.0 0.0 0.00 0.00 0.00 100
20220122120814 0 0 0.0 0.0 0.00 0.00 0.00 100
20220122120013 19 258 2.0 1.0 0.00 0.00 0.00 98
20220122115612 19 271 0.0 2.0 0.00 0.00 0.00 98
20220122114813 19 299 1.0 7.0 0.00 0.00 0.00 98
20220122114016 0 0 0.0 0.0 0.00 0.00 0.00 100
20220122113214 18 272 0.0 2.0 0.00 0.00 0.00 98
20220122112413 19 0 0.0 0.0 0.00 0.00 0.00 97
20220122111613 18 275 0.0 1.0 0.00 0.00 0.00 97
20220122110814 0 0 0.0 0.0 0.00 0.00 0.00 100
20220122110015 0 0 0.0 0.0 0.00 0.00 0.00 100
20220122105613 18 0 0.0 0.0 0.00 0.00 0.00 97
20220122104814 0 0 0.0 0.0 0.00 0.00 0.00 100
20220122104013 18 257 1.0 6.0 0.00 0.00 0.00 97
20220122103215 0 0 0.0 0.0 0.00 0.00 0.00 100
20220122102412 17 0 0.0 0.0 0.00 0.00 0.00 97
20220122101614 0 0 0.0 0.0 0.00 0.00 0.00 100
20220122100814 17 0 0.0 0.0 0.00 0.00 0.00 96
20220122100013 0 0 0.0 0.0 0.00 0.00 0.00 100
20220122095614 0 0 0.0 0.0 0.00 0.00 0.00 100
20220122094815 0 0 0.0 0.0 0.00 0.00 0.00 100
20220122094012 18 0 0.0 0.0 0.00 0.00 0.00 96
20220122093214 18 0 0.0 0.0 0.00 0.00 0.00 97
20220122092415 0 0 0.0 0.0 0.00 0.00 0.00 100
20220122091614 0 0 0.0 0.0 0.00 0.00 0.00 100
20220122090814 0 0 0.0 0.0 0.00 0.00 0.00 100
20220122090014 18 0 0.0 0.0 0.00 0.00 0.00 97
20220122085615 0 0 0.0 0.0 0.00 0.00 0.00 100
20220122084813 18 198 0.0 4.0 0.00 0.00 0.00 98
20220122084013 18 14 0.0 1.0 0.00 0.00 0.00 98
20220122083216 0 0 0.0 0.0 0.00 0.00 0.00 100
20220122082413 19 0 0.0 0.0 0.00 0.00 0.00 97
20220122081613 19 0 0.0 0.0 0.00 0.00 0.00 96
20220122080815 20 0 0.0 0.0 0.00 0.00 0.00 96
20220122080016 0 0 0.0 0.0 0.00 0.00 0.00 100
20220122075612 20 0 0.0 0.0 0.00 0.00 0.00 97
20220122074814 20 0 0.0 0.0 0.00 0.00 0.00 97
20220122074014 20 0 0.0 0.0 0.00 0.00 0.00 97
20220122073213 21 0 0.0 0.0 0.00 0.00 0.00 97
20220122072413 21 0 0.0 0.0 0.00 0.00 0.00 97
20220122071612 21 0 0.0 0.0 0.00 0.00 0.00 97
20220122070814 0 0 0.0 0.0 0.00 0.00 0.00 100
20220122070013 0 0 0.0 0.0 0.00 0.00 0.00 100
20220122065615 21 0 0.0 0.0 0.00 0.00 0.00 97
20220122064813 22 0 0.0 0.0 0.00 0.00 0.00 97
20220122064014 0 0 0.0 0.0 0.00 0.00 0.00 100
20220122063213 22 0 0.0 0.0 0.00 0.00 0.00 97
20220122062413 22 0 0.0 0.0 0.00 0.00 0.00 97
20220122061614 22 0 0.0 0.0 0.00 0.00 0.00 97
20220122060812 22 0 0.0 0.0 0.00 0.00 0.00 97
20220122060012 22 0 0.0 0.0 0.00 0.00 0.00 97
20220122055614 22 0 0.0 0.0 0.00 0.00 0.00 97
20220122054814 22 0 0.0 0.0 0.00 0.00 0.00 97
20220122054015 22 0 0.0 0.0 0.00 0.00 0.00 97
20220122053215 0 0 0.0 0.0 0.00 0.00 0.00 100
20220122052413 22 18 0.0 3.0 0.00 0.00 0.00 97
20220122051614 22 11 2.0 6.0 0.00 0.00 0.00 97
20220122050816 0 0 0.0 0.0 0.00 0.00 0.00 100
20220122050014 22 27 2.0 7.0 0.00 0.00 0.00 97
20220122045612 22 37 0.0 2.0 0.00 0.00 0.00 97
20220122044812 22 32 0.0 2.0 0.00 0.00 0.00 97
20220122044015 22 31 1.0 5.0 0.00 0.00 0.00 97
20220122043214 22 6 1.0 8.0 0.00 0.00 0.00 97
20220122042415 0 0 0.0 0.0 0.00 0.00 0.00 100
20220122041615 0 0 0.0 0.0 0.00 0.00 0.00 100
20220122040813 22 360 4.0 6.0 0.00 0.00 0.00 97
20220122040015 22 37 5.0 6.0 0.00 0.00 0.00 97
20220122035612 22 3 3.0 4.0 0.00 0.00 0.00 97
20220122034813 22 340 4.0 8.0 0.00 0.00 0.00 97
20220122034011 22 1 2.0 8.0 0.00 0.00 0.00 97
20220122033213 22 335 4.0 8.0 0.00 0.00 0.00 97
20220122032412 22 339 4.0 8.0 0.00 0.00 0.00 97
20220122031614 22 352 3.0 7.0 0.00 0.00 0.00 97
20220122030814 22 4 5.0 9.0 0.00 0.00 0.00 97
20220122030013 22 339 5.0 10.0 0.00 0.00 0.00 97
20220122025614 22 359 6.0 7.0 0.00 0.00 0.00 96
20220122024814 22 352 4.0 8.0 0.00 0.00 0.00 96
20220122024013 22 356 5.0 7.0 0.00 0.00 0.00 96
20220122023212 22 346 4.0 7.0 0.00 0.00 0.00 97
20220122022413 23 30 3.0 7.0 0.00 0.00 0.00 97
20220122021613 23 13 4.0 6.0 0.00 0.00 0.00 97
20220122020812 23 350 1.0 9.0 0.00 0.00 0.00 97
20220122020014 23 58 1.0 6.0 0.00 0.00 0.00 97
20220122015614 0 0 0.0 0.0 0.00 0.00 0.00 100
20220122014814 23 0 0.0 0.0 0.00 0.00 0.00 97
20220122014014 23 217 0.0 4.0 0.00 0.00 0.00 97
20220122013214 23 206 0.0 3.0 0.00 0.00 0.00 97
20220122012414 23 18 1.0 8.0 0.00 0.00 0.00 97
20220122011614 23 1 1.0 4.0 0.00 0.00 0.00 97
20220122010811 24 30 3.0 5.0 0.00 0.00 0.00 97
20220122010014 0 0 0.0 0.0 0.00 0.00 0.00 100
20220122005614 24 45 0.0 5.0 0.00 0.00 0.00 97
20220122004814 24 6 3.0 5.0 0.00 0.00 0.00 97
20220122004015 24 31 2.0 3.0 0.00 0.00 0.00 97
20220122003214 24 11 1.0 5.0 0.00 0.00 0.00 97
20220122002415 0 0 0.0 0.0 0.00 0.00 0.00 100
20220122001612 24 17 2.0 6.0 0.00 0.00 0.00 97
20220122000815 25 4 3.0 8.0 0.00 0.00 0.00 97
20220122000011 25 48 2.0 8.0 0.00 0.00 0.00 97
20220121235613 25 23 0.0 8.0 0.00 0.00 0.00 97
20220121234813 25 1 4.0 9.0 0.00 0.00 0.00 97
20220121234013 25 1 2.0 9.0 0.00 0.00 0.00 97
20220121233212 25 11 0.0 7.0 0.00 0.00 0.00 96
20220121232415 25 17 1.0 5.0 0.00 0.00 0.00 96
20220121231615 0 0 0.0 0.0 0.00 0.00 0.00 100
20220121230814 0 0 0.0 0.0 0.00 0.00 0.00 100
20220121230016 0 0 0.0 0.0 0.00 0.00 0.00 100
20220121225615 0 0 0.0 0.0 0.00 0.00 0.00 100
20220121224811 26 13 0.0 6.0 0.00 0.00 0.00 96
20220121224013 26 13 0.0 6.0 0.00 0.00 0.00 96
20220121223213 26 344 1.0 6.0 0.00 0.00 0.00 96
20220121222415 0 0 0.0 0.0 0.00 0.00 0.00 100
20220121221615 26 21 4.0 8.0 0.00 0.00 0.00 96
20220121220813 26 360 3.0 6.0 0.00 0.00 0.00 96
20220121220016 0 0 0.0 0.0 0.00 0.00 0.00 100
20220121215611 26 44 2.0 6.0 0.00 0.00 0.00 95
20220121214812 26 0 2.0 0.0 0.00 0.00 0.00 95
20220121214015 26 0 0.0 0.0 0.00 0.00 0.00 95
20220121213214 26 4 3.0 7.0 0.00 0.00 0.00 95
20220121212414 26 1 4.0 8.0 0.00 0.00 0.00 95
20220121211616 0 0 0.0 0.0 0.00 0.00 0.00 100
20220121210816 0 0 0.0 0.0 0.00 0.00 0.00 100
20220121210015 0 0 0.0 0.0 0.00 0.00 0.00 100
20220121205614 27 4 3.0 7.0 0.00 0.00 0.00 94
20220121204814 27 20 1.0 6.0 0.00 0.00 0.00 94
20220121204013 27 0 0.0 0.0 0.00 0.00 0.00 94
20220121203213 27 0 0.0 0.0 0.00 0.00 0.00 94
20220121202414 27 0 0.0 0.0 0.00 0.00 0.00 94
20220121201614 0 0 0.0 0.0 0.00 0.00 0.00 100
20220121200812 27 35 0.0 1.0 0.00 0.00 0.00 94
20220121200012 27 112 0.0 6.0 0.00 0.00 0.00 93
20220121195614 26 339 3.0 6.0 0.00 0.00 0.00 93
20220121194812 27 24 2.0 5.0 0.00 0.00 0.00 91
20220121194014 27 23 3.0 6.0 0.00 0.00 0.00 90
20220121193213 28 4 1.0 7.0 0.00 0.00 0.00 88
20220121192413 28 27 4.0 10.0 0.00 0.00 0.00 84
20220121191613 29 4 4.0 10.0 0.00 0.00 0.00 79
20220121190814 30 137 6.0 10.0 0.00 0.00 0.00 76
20220121190014 0 0 0.0 0.0 0.00 0.00 0.00 100
20220121185614 30 107 0.0 5.0 0.00 0.00 0.00 73
20220121184815 0 0 0.0 0.0 0.00 0.00 0.00 100
20220121184014 31 138 0.0 6.0 0.00 0.00 0.00 73
20220121183211 31 208 5.0 6.0 0.00 0.00 0.00 72
20220121182414 32 0 0.0 0.0 0.00 0.00 0.00 71
20220121181615 0 0 0.0 0.0 0.00 0.00 0.00 100
20220121180814 33 113 0.0 6.0 0.00 0.00 0.00 68
20220121180011 33 143 0.0 6.0 0.00 0.00 0.00 67
20220121175614 33 216 0.0 6.0 0.00 0.00 0.00 67
20220121174814 0 0 0.0 0.0 0.00 0.00 0.00 100
20220121174013 33 203 0.0 6.0 0.00 0.00 0.00 67